Los Alamitos, CA

7:50 PM PST on February 24, 2017 (GMT -0800)
Los Alamitos Army Air Field

Weather History for KSLI - December, 2012

Change the Weather History Date:

Monday, December 3, 2012

  Actual Average Record
Temperature  
Mean Temperature 60 °F -  
Max Temperature 67 °F 67 °F 75 °F (2005)
Min Temperature 53 °F 50 °F 40 °F (2010)
Degree Days  
Heating Degree Days 5    
Growing Degree Days 10 (Base 50)    
Moisture  
Dew Point 50 °F    
Average Humidity 76    
Maximum Humidity 100    
Minimum Humidity 32    
Precipitation  
Precipitation 0.40 in - - ()
Sea Level Pressure  
Sea Level Pressure 30.15 in    
Wind  
Wind Speed 5 mph (SE)    
Max Wind Speed 9 mph    
Max Gust Speed -    
Visibility 4 miles    
Events Fog , Rain    
Averages and records for this station are not official NWS values.
T = Trace of Precipitation, MM = Missing Value Source: NWS Daily Summary

Daily Weather History Graph

Daily Weather History Graph

Search for Another Location

Airport or City:

Trip Planner

Search our weather history database for the weather conditions in past years. The results will help you decide how hot, cold, wet, or windy it might be!

Date:

Astronomy

Dec. 03, 2012 Rise Set
Actual Time 6:41 AM PST 4:43 PM PST
Civil Twilight 6:13 AM PST 5:10 PM PST
Nautical Twilight 5:42 AM PST 5:41 PM PST
Astronomical Twilight 5:12 AM PST 6:11 PM PST
Moon 9:26 PM PST (12/3) 10:13 AM PST (12/3)
Length of Visible Light 10h 56m
Length of Day
10h 02m
Waning Gibbous, 77% of the Moon is Illuminated
Dec 3
Waning Gibbous
Dec 6
Last Quarter
Dec 13
New
Dec 19
First Quarter
Dec 28
Full

Hourly Weather History & Observations

Time (PST) Temp. Dew Point Humidity Pressure Visibility Wind Dir Wind Speed Gust Speed Precip Events Conditions
12:08 AM 62.6 °F 62.6 °F 100% 30.10 in 2.5 mi SE 5.8 mph - N/A   Overcast
12:13 AM 62.6 °F 62.6 °F 100% 30.10 in 2.5 mi SSE 5.8 mph - N/A   Overcast
12:18 AM 62.6 °F 62.6 °F 100% 30.10 in 3.0 mi SSE 5.8 mph - N/A   Overcast
12:33 AM 62.6 °F 62.6 °F 100% 30.10 in 3.0 mi South 8.1 mph - N/A   Overcast
12:43 AM 60.8 °F 60.8 °F 100% 30.11 in 4.0 mi South 6.9 mph - N/A   Overcast
12:48 AM 60.8 °F 60.8 °F 100% 30.11 in 3.0 mi South 6.9 mph - N/A   Overcast
12:58 AM 61.3 °F 61.3 °F 100% 30.12 in 5.0 mi South 6.9 mph - 0.08 in   Overcast
1:04 AM 60.8 °F 60.8 °F 100% 30.11 in 4.0 mi SSW 5.8 mph - N/A Rain Rain
1:22 AM 60.8 °F 60.8 °F 100% 30.11 in 3.0 mi South 5.8 mph - N/A   Overcast
1:58 AM 60.8 °F 32.0 °F 34% 30.13 in 4.0 mi SSW 8.1 mph - 0.05 in   Haze
2:04 AM 60.8 °F 32.0 °F 34% 30.12 in 5.0 mi SSW 6.9 mph - N/A   Light Drizzle
2:57 AM 62.6 °F 32.0 °F 32% 30.11 in 4.0 mi South 4.6 mph - N/A   Haze
2:58 AM 62.6 °F 32.0 °F 32% 30.12 in 4.0 mi South 4.6 mph - 0.03 in   Haze
3:13 AM 62.6 °F 32.0 °F 32% 30.11 in 2.5 mi SSE 4.6 mph - N/A   Overcast
3:18 AM 62.6 °F 32.0 °F 32% 30.11 in 3.0 mi South 5.8 mph - N/A   Overcast
3:21 AM 62.6 °F 32.0 °F 32% 30.11 in 4.0 mi South 5.8 mph - N/A   Light Drizzle
3:40 AM 60.8 °F 32.0 °F 34% 30.11 in 4.0 mi South 4.6 mph - N/A   Haze
3:45 AM 60.8 °F 32.0 °F 34% 30.11 in 2.5 mi SSE 3.5 mph - N/A   Overcast
3:58 AM 62.6 °F 32.0 °F 32% 30.12 in 2.5 mi SSE 2.3 mph - 0.04 in   Overcast
4:14 AM 62.6 °F 32.0 °F 32% 30.11 in 2.0 mi SE 3.5 mph - N/A Rain Rain
4:23 AM 62.6 °F 32.0 °F 32% 30.11 in 2.5 mi SE 2.3 mph - N/A   Overcast
4:28 AM 62.6 °F 32.0 °F 32% 30.11 in 3.0 mi SE 4.6 mph - N/A   Overcast
4:33 AM 62.6 °F 32.0 °F 32% 30.11 in 2.5 mi SE 3.5 mph - N/A   Overcast
4:58 AM 62.6 °F 32.0 °F 32% 30.13 in 2.5 mi SSE 3.5 mph - 0.08 in   Overcast
5:03 AM 62.6 °F 32.0 °F 32% 30.12 in 3.0 mi SE 3.5 mph - N/A   Overcast
5:08 AM 62.6 °F 32.0 °F 32% 30.12 in 2.5 mi ESE 4.6 mph - N/A   Overcast
5:23 AM 62.6 °F 32.0 °F 32% 30.12 in 2.5 mi SE 4.6 mph - N/A   Overcast
5:25 AM 62.6 °F 32.0 °F 32% 30.12 in 3.0 mi SE 5.8 mph - N/A Rain Light Rain
5:38 AM 60.8 °F 32.0 °F 34% 30.13 in 3.0 mi ESE 4.6 mph - N/A   Overcast
5:43 AM 60.8 °F 32.0 °F 34% 30.13 in 2.5 mi ESE 4.6 mph - N/A   Overcast
5:58 AM 60.8 °F 32.0 °F 34% 30.14 in 2.5 mi ESE 4.6 mph - 0.04 in   Overcast
5:59 AM 60.8 °F 32.0 °F 34% 30.13 in 2.5 mi ESE 4.6 mph - N/A   Light Drizzle
6:04 AM 60.8 °F 32.0 °F 34% 30.13 in 3.0 mi ESE 3.5 mph - N/A   Light Drizzle
6:09 AM 60.8 °F 32.0 °F 34% 30.13 in 3.0 mi East 4.6 mph - N/A   Overcast
6:14 AM 60.8 °F 32.0 °F 34% 30.13 in 2.5 mi ESE 3.5 mph - N/A   Overcast
6:20 AM 60.8 °F 32.0 °F 34% 30.13 in 2.5 mi ESE 4.6 mph - N/A   Light Drizzle
6:25 AM 60.8 °F 32.0 °F 34% 30.13 in 3.0 mi East 4.6 mph - N/A   Light Drizzle
6:28 AM 60.8 °F 32.0 °F 34% 30.13 in 3.0 mi East 3.5 mph - N/A   Overcast
6:48 AM 60.8 °F 32.0 °F 34% 30.14 in 2.5 mi East 4.6 mph - N/A   Overcast
6:51 AM 60.8 °F 32.0 °F 34% 30.14 in 1.8 mi East 4.6 mph - N/A Rain Light Rain
6:58 AM 60.8 °F 32.0 °F 34% 30.15 in 1.5 mi East 4.6 mph - 0.02 in Rain Light Rain
7:17 AM 62.6 °F 32.0 °F 32% 30.15 in 3.0 mi East 4.6 mph - N/A   Overcast
7:31 AM 62.6 °F 32.0 °F 32% 30.15 in 3.0 mi ESE 8.1 mph - N/A Rain Light Rain
7:36 AM 60.8 °F 32.0 °F 34% 30.15 in 2.0 mi ESE 8.1 mph - N/A Rain Light Rain
7:45 AM 60.8 °F 60.8 °F 100% 30.15 in 3.0 mi ESE 8.1 mph - N/A   Overcast
7:58 AM 61.3 °F 61.0 °F 99% 30.16 in 3.0 mi SE 5.8 mph - 0.02 in   Overcast
7:59 AM 60.8 °F 60.8 °F 100% 30.15 in 2.5 mi SE 5.8 mph - N/A Rain Light Rain
8:14 AM 60.8 °F 60.8 °F 100% 30.15 in 3.0 mi ESE 9.2 mph - N/A Rain Light Rain
8:27 AM 60.8 °F 60.8 °F 100% 30.16 in 3.0 mi SE 6.9 mph - N/A   Overcast
8:37 AM 60.8 °F 60.8 °F 100% 30.17 in 4.0 mi SE 6.9 mph - N/A   Overcast
8:48 AM 62.6 °F 60.8 °F 94% 30.17 in 4.0 mi SE 5.8 mph - N/A Rain Light Rain
8:58 AM 61.9 °F 61.2 °F 97% 30.18 in 2.5 mi SSE 5.8 mph - 0.02 in Rain Light Rain
9:03 AM 62.6 °F 60.8 °F 94% 30.17 in 2.5 mi SE 5.8 mph - N/A Rain Light Rain
9:15 AM 62.6 °F 60.8 °F 94% 30.18 in 2.5 mi SSE 4.6 mph - N/A   Overcast
9:22 AM 62.6 °F 62.6 °F 100% 30.18 in 3.0 mi SSE 4.6 mph - N/A Rain Light Rain
9:58 AM 62.6 °F 62.6 °F 100% 30.20 in 7.0 mi South 4.6 mph - 0.01 in Rain Light Rain
10:03 AM 62.6 °F 62.6 °F 100% 30.19 in 7.0 mi South 5.8 mph - N/A Rain Light Rain
10:06 AM 62.6 °F 62.6 °F 100% 30.19 in 7.0 mi South 4.6 mph - N/A   Overcast
10:16 AM 64.4 °F 64.4 °F 100% 30.19 in 7.0 mi Variable 4.6 mph - N/A   Overcast
10:31 AM 64.4 °F 64.4 °F 100% 30.18 in 10.0 mi South 5.8 mph - N/A   Overcast
10:46 AM 64.4 °F 64.4 °F 100% 30.18 in 7.0 mi South 5.8 mph - N/A   Overcast
10:58 AM 64.4 °F 64.4 °F 100% 30.19 in 10.0 mi SSW 6.9 mph - 0.01 in   Overcast
11:02 AM 64.4 °F 64.4 °F 100% 30.18 in 10.0 mi South 8.1 mph - N/A   Overcast
11:10 AM 64.4 °F 64.4 °F 100% 30.17 in 10.0 mi SSW 9.2 mph - N/A   Overcast
11:32 AM 66.2 °F 66.2 °F 100% 30.17 in 10.0 mi SW 8.1 mph - N/A   Overcast
11:47 AM 66.2 °F 66.2 °F 100% 30.17 in 10.0 mi SW 6.9 mph - N/A   Mostly Cloudy
11:58 AM 67.5 °F 67.5 °F 100% 30.17 in 10.0 mi SW 8.1 mph - N/A   Mostly Cloudy
12:08 PM 66.2 °F 66.2 °F 100% 30.16 in 10.0 mi SW 8.1 mph - N/A   Scattered Clouds
12:49 PM 66.2 °F 66.2 °F 100% 30.14 in 10.0 mi South 8.1 mph - N/A   Scattered Clouds
12:58 PM 66.9 °F 66.9 °F 100% 30.15 in 10.0 mi SSW 8.1 mph - N/A   Scattered Clouds
1:58 PM 64.8 °F 64.8 °F 100% 30.13 in 10.0 mi South 8.1 mph - N/A   Scattered Clouds
2:48 PM 62.6 °F 62.6 °F 100% 30.11 in 10.0 mi South 9.2 mph - N/A   Mostly Cloudy
2:58 PM 62.6 °F 62.6 °F 100% 30.13 in 10.0 mi South 8.1 mph - N/A   Mostly Cloudy
3:58 PM 61.2 °F 61.2 °F 100% 30.13 in 8.0 mi South 6.9 mph - N/A   Overcast
4:43 PM 60.8 °F 60.8 °F 100% 30.13 in 10.0 mi South 5.8 mph - N/A   Scattered Clouds
4:58 PM 60.6 °F 60.6 °F 100% 30.13 in 10.0 mi SSW 5.8 mph - N/A   Clear
5:58 PM 60.4 °F 60.4 °F 100% 30.15 in 10.0 mi WNW 4.6 mph - N/A   Clear
6:33 PM 60.8 °F 60.8 °F 100% 30.15 in 10.0 mi Calm Calm - N/A   Scattered Clouds
6:58 PM 59.9 °F 59.9 °F 100% 30.17 in 10.0 mi NNW 2.3 mph - N/A   Partly Cloudy
7:58 PM 58.1 °F 58.1 °F 100% 30.18 in 10.0 mi East 1.2 mph - N/A   Clear
8:58 PM 57.2 °F 57.2 °F 100% 30.19 in 7.0 mi Calm Calm - N/A   Clear
9:43 PM 55.4 °F 55.4 °F 100% 30.18 in 2.5 mi Calm Calm - N/A   Clear
9:48 PM 55.4 °F 55.4 °F 100% 30.18 in 1.0 mi Calm Calm - N/A   Clear
9:53 PM 55.4 °F 55.4 °F 100% 30.18 in 0.8 mi Calm Calm - N/A   Clear
9:58 PM 55.4 °F 55.4 °F 100% 30.19 in 1.8 mi Calm Calm - N/A   Clear
10:03 PM 55.4 °F 55.4 °F 100% 30.18 in 4.0 mi East 1.2 mph - N/A   Clear
10:13 PM 55.4 °F 55.4 °F 100% 30.18 in 2.5 mi ESE 2.3 mph - N/A   Clear
10:18 PM 55.4 °F 55.4 °F 100% 30.19 in 3.0 mi SE 2.3 mph - N/A   Clear
10:38 PM 53.6 °F 53.6 °F 100% 30.18 in 1.5 mi SE 2.3 mph - N/A   Clear
10:48 PM 55.4 °F 55.4 °F 100% 30.18 in 3.0 mi Calm Calm - N/A   Partly Cloudy
10:53 PM 55.4 °F 55.4 °F 100% 30.18 in 2.5 mi Calm Calm - N/A   Scattered Clouds
10:58 PM 55.4 °F 55.4 °F 100% 30.19 in 3.0 mi Calm Calm - N/A   Scattered Clouds
11:13 PM 55.4 °F 55.4 °F 100% 30.19 in 1.2 mi Calm Calm - N/A   Partly Cloudy
11:18 PM 53.6 °F 53.6 °F 100% 30.19 in 0.5 mi Calm Calm - N/A Fog Fog
11:28 PM 53.6 °F 53.6 °F 100% 30.19 in 0.5 mi Calm Calm - N/A Fog Fog
11:38 PM 53.6 °F 53.6 °F 100% 30.19 in 0.8 mi NNE 2.3 mph - N/A   Clear
11:43 PM 53.6 °F 53.6 °F 100% 30.19 in 0.5 mi NE 2.3 mph - N/A Fog Fog
11:53 PM 55.4 °F 55.4 °F 100% 30.19 in 0.8 mi NE 2.3 mph - N/A   Clear
11:58 PM 54.7 °F 54.7 °F 100% 30.20 in 1.0 mi NE 2.3 mph - N/A   Clear